Wind_Speed
11 12 13 15 16 18 21 22 23 25 26 27 28 30 31 32 33 34 34 34 34 34 34 33 33 33 33 34 35 35 35 36 37 38 39 41 41 43 44 46 47 48 50 51
11 12 13 14 15 17 19 21 23 24 25 26 27 28 29 30 31 32 33 32 32 31 31 31 30 29 29 29 30 31 32 34 35 37 38 39 40 42 43 45 47 49 50 51
11 12 13 13 14 15 17 18 20 22 24 25 25 26 28 28 28 29 29 29 29 29 28 28 27 27 27 27 27 29 30 31 32 34 35 37 39 41 42 44 46 48 49 51
12 12 13 13 14 15 16 18 19 20 21 21 22 24 24 24 24 24 25 26 27 26 25 25 25 25 24 25 26 28 29 30 31 33 35 36 38 39 41 43 45 47 49 50
12 12 12 13 13 14 15 16 17 18 19 20 20 20 21 23 22 21 22 23 23 23 24 24 25 24 25 26 27 28 29 30 31 32 33 35 36 38 40 42 44 45 46 45
13 13 14 14 13 14 14 14 15 16 17 17 16 17 17 17 17 18 20 21 22 22 22 23 23 24 25 25 26 27 28 29 30 31 32 33 34 36 38 39 41 41 41 40
14 14 14 14 14 13 13 13 13 14 14 14 14 15 16 17 18 18 19 19 19 20 20 21 22 23 24 24 25 26 27 27 28 29 30 31 32 33 35 35 36 35 34 34
14 14 15 14 13 13 13 13 13 13 13 13 14 15 15 15 16 16 16 17 17 18 19 20 21 21 21 22 23 23 24 25 26 27 28 29 29 30 29 29 29 29 29 28
15 15 15 14 13 13 13 13 13 13 13 13 13 13 14 14 14 14 14 15 16 17 18 18 19 20 20 20 21 22 22 23 25 25 26 26 26 26 26 25 25 25 25 25
16 16 15 14 14 14 14 13 13 12 12 13 13 13 13 12 12 13 14 14 15 16 16 17 18 18 18 18 19 20 22 23 23 24 24 23 23 23 23 23 23 22 22 21
16 16 16 15 14 14 13 13 12 11 11 12 12 12 12 12 12 12 13 13 14 14 15 16 16 16 17 17 19 20 21 21 22 21 21 21 21 21 21 20 20 19 19 18
16 17 16 16 15 14 13 13 12 12 12 11 11 11 11 11 11 12 13 13 14 14 14 14 15 15 16 17 18 19 19 19 19 19 18 18 18 17 17 17 17 16 16 15
17 17 16 16 15 14 14 13 13 12 11 11 10 10 10 11 11 12 12 12 13 13 13 13 14 14 14 15 16 17 17 17 17 16 16 15 15 15 15 14 13 13 12 12
17 17 16 15 14 14 13 13 12 12 11 10 9 9 9 10 10 10 11 11 12 12 12 13 13 13 14 14 15 15 15 14 14 13 13 13 13 13 12 12 11 10 10 10
17 16 15 15 14 13 13 13 12 12 10 10 9 9 9 9 9 10 10 11 11 11 12 12 12 12 13 13 13 12 12 12 11 11 11 11 11 10 10 9 9 9 9 10
17 16 15 14 13 13 13 13 12 11 11 10 9 9 9 9 9 10 10 10 11 11 11 11 11 11 11 11 11 10 10 10 10 10 10 10 9 9 9 9 9 8 9 9
16 15 15 14 13 13 13 12 11 11 11 10 9 9 10 10 10 10 10 10 10 11 11 10 10 10 10 10 9 9 9 9 9 9 9 9 8 8 8 8 8 8 9 9
15 15 14 14 13 12 12 11 11 11 10 10 10 10 10 10 10 11 11 11 11 12 11 10 10 10 9 9 8 8 8 8 8 8 8 8 8 7 7 8 8 8 9 9
15 15 14 13 13 12 12 11 10 10 10 10 10 10 10 10 11 12 12 12 12 12 12 12 11 10 9 8 8 7 7 7 8 8 8 7 7 7 7 8 8 8 9 9
14 14 13 13 12 12 12 11 10 9 9 10 10 10 10 11 12 13 13 13 13 13 13 13 12 11 10 9 8 7 7 7 8 8 8 7 7 7 7 7 8 8 9 9
13 13 12 12 11 11 11 10 10 9 9 9 10 10 10 11 12 13 14 14 14 14 14 14 14 13 12 10 9 8 8 8 8 9 8 8 8 8 8 8 8 9 9 10
12 12 11 11 10 10 10 10 9 9 9 9 9 10 10 11 12 13 14 14 14 15 15 15 15 14 13 12 11 10 9 9 9 9 9 9 9 9 9 9 9 9 10 10
11 11 10 10 10 10 9 9 9 9 8 8 8 9 10 10 11 12 13 14 14 15 15 16 16 16 15 14 13 12 11 10 10 10 10 9 9 10 10 10 10 10 10 10
10 10 9 9 9 9 9 8 8 8 8 7 7 8 9 9 10 11 12 13 13 14 15 15 16 16 15 15 14 13 12 11 11 11 10 10 10 10 10 11 11 11 11 11
9 9 8 8 8 8 8 8 7 7 7 6 6 6 7 8 9 10 11 11 12 13 14 15 15 15 15 15 15 14 13 13 12 12 12 11 11 11 11 11 11 11 11 12
8 8 8 7 7 8 8 7 6 6 6 5 5 5 6 7 8 9 9 10 11 12 13 13 14 15 15 15 15 14 13 13 12 12 12 11 11 11 11 11 11 11 11 11
8 8 7 7 7 7 7 7 6 5 5 5 4 4 5 5 6 7 8 9 9 10 11 12 13 13 13 13 13 13 13 13 12 12 12 11 11 11 11 11 11 11 11 11
Wind_Direction
281 277 272 269 265 261 259 260 261 263 264 266 267 266 266 268 270 271 272 274 276 277 277 276 277 275 274 274 275 275 276 276 278 281 282 282 283 283 285 286 287 289 290 291
291 285 281 278 273 269 268 267 267 267 268 270 271 269 269 270 271 271 272 273 275 276 277 277 277 276 276 276 276 276 277 279 279 280 280 282 283 284 285 287 289 290 291 292
304 298 292 286 280 276 275 274 272 269 271 273 273 272 272 270 268 270 272 273 273 275 275 278 279 279 279 280 279 279 280 280 279 280 281 283 285 286 287 290 291 292 293 293
313 308 299 297 292 286 280 277 278 276 274 274 276 274 271 271 271 271 270 271 271 274 277 279 280 281 280 278 278 279 280 281 282 283 284 285 287 289 291 292 292 294 295 296
324 318 311 306 300 294 288 284 284 284 282 280 276 274 269 270 273 271 268 271 274 277 279 280 280 281 280 279 279 282 284 286 288 288 289 291 293 294 295 296 297 298 299 300
333 327 320 314 308 301 297 293 293 290 287 285 282 278 276 275 273 272 273 274 277 277 276 276 277 279 280 281 283 285 288 289 291 292 294 296 298 299 300 300 301 301 302 303
334 330 327 323 316 311 307 304 298 295 292 289 284 280 279 279 278 276 274 275 275 275 275 274 277 280 283 285 287 288 289 292 294 296 298 300 302 304 305 306 307 308 309 311
340 335 332 328 323 318 314 311 306 302 298 292 287 285 284 283 282 278 276 276 276 278 279 282 284 286 288 290 291 293 294 296 298 300 302 304 307 309 311 313 314 315 316 317
343 339 334 330 327 323 319 314 309 306 301 295 290 288 286 284 282 280 279 280 280 281 284 286 289 291 292 294 296 297 299 301 302 304 306 308 311 313 316 318 319 320 321 322
343 341 336 332 329 326 322 317 314 309 304 298 295 293 291 289 287 286 286 286 287 289 290 292 293 295 296 298 300 302 303 304 305 306 308 310 312 315 318 320 322 324 326 328
343 340 339 337 332 328 325 323 320 316 311 307 305 302 299 296 293 292 293 293 294 295 296 297 297 298 300 303 306 307 308 308 308 308 310 313 315 318 321 323 325 327 330 332
342 341 341 341 339 336 334 331 327 322 318 315 311 309 306 304 302 300 299 299 300 300 300 301 302 303 305 307 310 312 313 312 311 312 315 318 320 323 325 327 329 332 335 340
344 343 343 342 341 340 337 335 333 329 326 321 317 314 313 312 310 309 308 309 309 307 307 308 309 309 309 311 313 315 316 316 317 318 320 323 326 330 333 335 339 343 348 355
346 345 345 345 345 343 342 342 341 339 337 333 330 326 323 322 321 320 319 318 318 317 315 314 313 313 313 314 316 318 319 320 321 324 328 332 335 338 341 346 354 1 7 13
347 347 347 347 346 345 345 347 347 346 345 343 341 340 338 336 336 334 332 330 326 324 321 320 318 318 318 319 322 324 325 326 328 333 337 341 345 351 356 3 11 17 21 26
348 349 350 350 349 349 348 348 351 352 352 353 354 353 351 351 350 347 344 341 337 334 332 330 328 327 327 327 329 331 335 338 342 346 350 353 358 4 9 15 21 26 31 35
349 351 352 352 351 351 351 352 356 358 358 360 360 358 359 359 357 356 353 350 349 347 344 340 337 337 338 339 340 343 347 350 354 358 1 5 10 15 19 25 32 39 42 41
351 353 354 354 355 355 356 359 2 4 5 6 5 4 5 6 6 4 2 1 359 357 354 350 347 346 346 348 351 355 359 2 4 8 12 16 20 26 33 39 44 46 45 43
352 355 356 358 359 360 1 3 3 6 9 12 13 14 14 14 14 14 12 10 9 8 8 7 3 360 358 358 1 4 9 12 13 16 20 24 30 36 41 45 46 45 44 41
352 356 358 0 1 2 3 4 6 9 12 15 17 17 18 21 22 22 21 19 18 18 19 18 17 15 13 12 14 19 22 22 23 26 30 31 34 39 42 44 43 43 43 42
352 356 359 1 3 4 5 7 11 13 16 20 21 23 26 27 27 27 25 24 24 26 27 27 26 25 25 26 29 30 31 33 34 35 38 40 43 47 48 47 46 46 46 46
351 354 358 2 4 4 5 8 11 12 15 19 22 27 29 29 28 28 27 28 29 30 30 31 31 31 31 33 36 37 38 39 40 42 45 48 50 50 50 49 49 48 48 49
347 351 354 358 1 3 4 6 8 10 12 14 19 25 28 30 29 29 29 30 31 32 33 33 34 35 36 37 39 41 42 42 43 45 49 52 52 51 51 51 50 51 52 53
343 347 350 353 356 359 1 1 2 5 8 10 16 23 27 30 30 29 29 30 31 32 33 33 34 36 38 39 40 41 43 45 47 49 51 52 52 53 53 53 53 55 55 55
337 341 344 346 350 352 354 353 355 359 3 8 15 20 25 27 26 25 27 29 32 34 35 35 37 38 40 41 42 44 46 48 50 51 53 54 55 54 54 55 57 57 56 56
329 334 336 338 341 344 346 345 347 352 358 4 8 12 16 17 20 22 25 28 32 34 35 35 36 38 39 40 41 42 44 46 48 50 52 54 54 54 54 55 56 56 56 56
317 324 328 329 329 331 335 336 335 337 341 345 350 357 4 9 14 17 20 23 26 31 34 34 35 35 36 36 38 40 42 44 45 47 49 51 53 54 54 55 55 56 55 55
Height
5751 5751 5751 5750 5750 5750 5751 5751 5752 5752 5752 5753 5752 5752 5752 5752 5752 5752 5752 5752 5752 5751 5751 5750 5750 5749 5748 5747 5746 5745 5744 5743 5742 5740 5739 5737 5734 5732 5729 5727 5724 5720 5717 5713
5749 5748 5747 5747 5746 5746 5746 5746 5746 5746 5746 5746 5745 5744 5744 5744 5744 5744 5744 5743 5743 5743 5742 5742 5741 5740 5739 5738 5738 5737 5736 5734 5733 5731 5729 5727 5724 5721 5719 5716 5712 5709 5705 5700
5746 5744 5744 5743 5743 5742 5741 5740 5740 5740 5741 5739 5739 5738 5737 5737 5736 5736 5736 5736 5735 5734 5734 5733 5732 5732 5731 5730 5730 5728 5727 5725 5723 5722 5720 5717 5714 5711 5708 5705 5701 5697 5692 5688
5743 5742 5741 5742 5738 5737 5737 5736 5735 5734 5733 5733 5732 5731 5730 5729 5729 5729 5729 5728 5727 5727 5726 5726 5725 5724 5723 5722 5721 5720 5719 5717 5715 5713 5710 5707 5705 5702 5698 5694 5690 5685 5680 5675
5741 5739 5738 5737 5734 5733 5732 5731 5730 5729 5728 5726 5725 5725 5724 5723 5723 5722 5722 5721 5721 5720 5720 5719 5718 5717 5716 5715 5714 5712 5711 5709 5706 5704 5701 5699 5695 5692 5688 5684 5679 5674 5669 5664
5738 5736 5734 5734 5731 5729 5729 5727 5726 5724 5722 5721 5720 5720 5720 5718 5717 5717 5716 5715 5714 5714 5713 5712 5711 5710 5709 5707 5706 5704 5702 5701 5698 5696 5693 5690 5686 5683 5678 5674 5669 5664 5659 5654
5737 5734 5732 5730 5728 5726 5726 5725 5721 5719 5718 5717 5716 5715 5714 5713 5712 5711 5710 5709 5709 5708 5707 5706 5705 5704 5702 5700 5699 5697 5695 5693 5691 5688 5685 5682 5678 5674 5670 5665 5660 5655 5651 5646
5735 5732 5732 5727 5725 5724 5722 5719 5717 5716 5714 5713 5712 5710 5709 5708 5707 5706 5705 5704 5704 5703 5702 5700 5699 5698 5696 5694 5693 5691 5689 5686 5684 5681 5678 5675 5671 5667 5663 5658 5654 5649 5644 5640
5734 5733 5728 5725 5723 5720 5718 5716 5714 5713 5711 5709 5708 5707 5705 5704 5703 5702 5701 5700 5699 5698 5697 5695 5694 5693 5691 5689 5687 5685 5683 5680 5678 5675 5672 5668 5665 5661 5657 5653 5649 5644 5640 5635
5732 5729 5726 5723 5721 5718 5716 5714 5712 5710 5708 5706 5705 5703 5702 5700 5699 5698 5697 5696 5695 5693 5692 5691 5689 5688 5686 5684 5682 5680 5677 5675 5672 5669 5666 5662 5659 5655 5652 5648 5644 5640 5636 5632
5731 5728 5725 5722 5719 5716 5714 5711 5709 5707 5705 5703 5701 5700 5698 5697 5696 5695 5694 5692 5691 5689 5688 5686 5685 5683 5681 5679 5677 5674 5672 5669 5666 5663 5660 5657 5654 5651 5648 5644 5641 5637 5634 5630
5730 5726 5723 5720 5717 5714 5712 5710 5707 5705 5703 5700 5699 5697 5696 5694 5693 5692 5690 5689 5687 5686 5684 5682 5681 5679 5677 5675 5672 5670 5667 5664 5661 5658 5656 5653 5650 5647 5644 5641 5638 5635 5632 5628
5728 5725 5722 5719 5716 5713 5710 5708 5705 5703 5701 5699 5697 5695 5694 5692 5690 5689 5687 5686 5684 5682 5680 5679 5677 5675 5673 5671 5668 5666 5663 5660 5657 5655 5652 5650 5647 5644 5642 5639 5636 5633 5630 5628
5726 5723 5720 5717 5714 5712 5709 5706 5704 5702 5699 5697 5695 5693 5692 5690 5688 5687 5685 5683 5681 5679 5677 5676 5674 5672 5670 5667 5665 5662 5660 5657 5655 5652 5650 5647 5645 5643 5640 5638 5635 5633 5631 5628
5725 5722 5719 5716 5713 5711 5708 5706 5703 5701 5698 5696 5694 5692 5690 5689 5687 5685 5683 5681 5679 5677 5675 5673 5671 5669 5667 5664 5662 5660 5657 5655 5653 5650 5648 5646 5644 5641 5639 5637 5635 5633 5631 5629
5724 5721 5718 5715 5713 5710 5707 5705 5702 5700 5698 5696 5694 5692 5690 5688 5686 5684 5682 5680 5678 5675 5673 5671 5668 5666 5664 5662 5660 5658 5656 5653 5651 5649 5647 5645 5643 5641 5640 5638 5636 5634 5633 5631
5724 5720 5717 5715 5712 5709 5707 5704 5702 5700 5697 5695 5694 5692 5690 5688 5686 5684 5682 5679 5677 5674 5672 5669 5667 5665 5663 5660 5658 5657 5655 5653 5651 5649 5647 5645 5643 5642 5640 5639 5637 5636 5634 5633
5723 5720 5717 5714 5711 5709 5706 5704 5702 5700 5698 5696 5694 5692 5690 5688 5686 5684 5681 5679 5676 5673 5671 5668 5666 5663 5661 5659 5658 5656 5654 5653 5651 5649 5648 5646 5644 5643 5642 5640 5639 5637 5636 5635
5722 5719 5716 5713 5711 5709 5706 5704 5702 5700 5698 5696 5694 5692 5691 5689 5686 5684 5681 5679 5676 5673 5671 5668 5665 5663 5661 5659 5657 5656 5655 5653 5652 5650 5649 5647 5646 5645 5643 5642 5641 5639 5638 5637
5721 5718 5715 5713 5711 5709 5706 5704 5702 5700 5699 5697 5695 5693 5691 5689 5687 5685 5682 5680 5677 5674 5672 5669 5666 5663 5661 5659 5658 5657 5655 5654 5653 5651 5650 5649 5647 5646 5645 5644 5643 5641 5640 5638
5720 5718 5715 5713 5711 5709 5707 5705 5703 5701 5699 5698 5696 5694 5693 5691 5689 5687 5684 5682 5679 5676 5673 5671 5668 5665 5663 5661 5659 5658 5657 5655 5654 5653 5651 5650 5649 5648 5647 5646 5644 5643 5642 5640
5719 5717 5715 5713 5711 5709 5707 5705 5704 5702 5700 5699 5697 5696 5694 5692 5690 5688 5686 5684 5681 5679 5676 5673 5670 5668 5665 5663 5661 5660 5659 5657 5656 5654 5653 5652 5651 5650 5649 5648 5647 5645 5644 5643
5718 5716 5714 5712 5711 5709 5707 5706 5704 5703 5701 5700 5698 5697 5695 5694 5692 5690 5688 5686 5684 5681 5679 5676 5673 5671 5668 5666 5664 5663 5661 5660 5658 5657 5656 5655 5654 5653 5651 5650 5649 5648 5646 5645
5717 5715 5714 5712 5710 5709 5707 5706 5705 5703 5702 5700 5699 5698 5697 5695 5694 5692 5691 5688 5686 5684 5682 5679 5677 5674 5672 5670 5668 5666 5664 5663 5661 5660 5658 5657 5656 5655 5654 5653 5652 5650 5649 5648
5715 5714 5712 5711 5710 5708 5707 5706 5705 5703 5702 5701 5700 5699 5698 5697 5696 5694 5693 5691 5689 5687 5684 5682 5680 5678 5675 5673 5671 5669 5668 5666 5665 5663 5662 5660 5659 5658 5657 5656 5654 5653 5652 5651
5714 5712 5711 5710 5709 5708 5707 5705 5704 5703 5702 5702 5701 5700 5699 5698 5697 5696 5694 5693 5691 5689 5687 5685 5683 5681 5679 5677 5675 5673 5671 5670 5668 5666 5665 5663 5662 5661 5660 5659 5657 5656 5655 5654
5712 5711 5709 5708 5707 5707 5706 5705 5704 5703 5702 5702 5701 5700 5700 5699 5698 5697 5696 5695 5693 5691 5690 5688 5686 5684 5682 5680 5678 5676 5675 5673 5671 5670 5668 5666 5665 5664 5663 5661 5660 5659 5658 5657